Lid_Strength_Index
3 2 2 3 3 3 3 4 2 2 2 2 2 2 1 1 0 2 5 3 2 -0 1 4 7 8 9 11 10 11 12 14 13 13 12 10 10 9 8 9 7 6 6 3 2
3 2 2 2 3 3 3 3 3 2 2 2 2 2 2 1 3 5 2 0 -1 -1 4 7 8 9 10 11 11 11 12 11 11 11 12 11 11 10 9 9 7 6 4 3 2
3 2 2 2 2 3 3 3 3 2 1 2 2 2 2 2 6 6 0 -1 -1 -1 4 5 6 7 10 11 12 12 13 11 12 11 10 11 11 10 10 10 8 7 5 4 3
2 2 2 2 2 2 3 3 3 3 2 2 2 2 2 5 12 4 -3 -1 -1 -0 4 6 7 7 7 11 12 14 12 13 11 11 10 11 10 11 10 9 8 8 7 4 4
3 3 3 2 2 2 2 3 3 3 2 2 2 2 4 8 8 4 -0 -1 1 1 6 6 8 7 7 8 11 13 13 12 11 11 11 11 11 11 10 9 8 8 8 7 3
3 3 3 3 2 2 2 3 3 3 3 2 2 2 6 10 5 1 -0 0 2 4 6 6 6 6 7 8 10 11 12 12 12 11 11 12 11 11 10 9 9 9 8 8 6
3 3 3 3 3 2 2 3 3 4 4 1 2 4 7 7 3 2 0 1 1 5 6 5 5 5 6 9 8 10 13 12 12 12 12 11 13 12 10 8 9 9 8 8 7
3 3 3 3 3 2 2 2 4 3 3 2 1 4 8 3 2 2 1 2 1 4 5 5 5 5 6 6 8 11 11 14 11 12 11 11 14 11 9 10 9 8 8 8 7
3 3 3 3 3 3 2 2 2 2 3 3 3 5 8 2 4 2 2 4 5 5 4 5 5 7 6 8 10 10 13 13 12 10 10 11 13 10 9 9 9 8 7 7 6
3 3 3 3 3 3 3 3 3 2 4 4 5 7 5 6 3 3 3 4 6 6 6 7 7 9 8 9 13 13 12 11 11 9 10 10 11 9 8 8 7 7 6 6 6
4 3 3 3 3 3 4 5 6 7 5 8 8 8 6 4 2 4 4 5 5 7 10 8 10 12 10 8 8 9 10 10 9 8 9 9 9 8 7 7 7 6 6 5 5
3 3 4 3 3 3 4 7 6 5 8 5 6 7 5 3 5 5 4 6 8 10 8 9 12 8 7 7 8 9 10 10 9 8 8 9 9 7 6 6 6 6 5 5 5
4 3 4 3 3 4 6 6 3 4 8 6 5 7 7 4 6 6 5 5 8 10 9 10 9 7 8 9 9 9 10 10 10 9 8 9 10 8 6 7 6 5 5 5 5
4 3 3 3 5 6 7 4 3 3 11 9 8 6 6 5 7 3 3 5 7 9 9 9 8 8 9 9 8 11 8 9 10 10 12 9 13 10 8 7 7 6 5 4 4
3 3 3 3 5 7 4 3 3 4 19 8 8 4 5 7 6 6 3 5 8 8 8 10 9 9 10 9 8 10 8 9 9 10 11 11 12 10 9 9 7 6 5 4 4
3 3 3 4 4 3 2 3 4 12 18 10 7 8 8 8 7 8 6 5 4 7 7 8 7 7 8 7 7 7 9 10 10 11 13 11 11 11 10 8 8 6 5 4 4
3 2 3 3 5 2 3 6 13 17 8 11 10 8 9 9 9 9 9 9 9 11 11 9 8 7 6 8 7 8 9 13 14 14 14 12 12 10 9 8 6 6 5 5 4
2 2 2 2 1 2 5 9 17 12 10 8 8 8 10 9 9 9 11 11 8 8 10 12 13 8 7 7 9 9 9 12 16 16 13 11 13 10 7 6 6 5 5 4 4
2 3 3 2 1 2 7 15 14 11 9 11 9 11 11 9 9 10 11 12 10 8 11 12 11 7 7 6 7 9 11 8 12 13 13 11 11 8 7 7 6 6 5 5 4
3 4 4 3 1 5 9 13 11 8 8 9 13 10 12 10 10 11 11 9 10 9 7 10 14 9 8 6 7 8 7 12 11 17 17 14 13 11 10 9 7 7 6 5 4
3 6 2 3 2 6 13 11 9 6 7 11 12 12 10 10 10 10 11 9 8 8 7 8 11 12 9 11 10 10 10 11 10 12 16 16 13 8 9 8 7 7 7 6 6
4 9 1 2 9 8 11 9 7 7 7 9 9 11 12 9 10 11 11 9 7 8 10 9 10 13 12 9 8 9 11 11 14 15 14 14 14 8 7 7 6 6 6 6 5
6 6 3 3 12 11 9 9 8 8 9 10 11 10 9 11 13 11 10 8 7 7 9 9 12 15 14 11 9 11 11 11 11 12 15 16 14 7 7 7 6 7 7 6 5
6 10 6 6 7 10 10 10 10 7 9 9 9 9 11 12 10 11 11 9 7 8 7 7 11 12 15 13 11 13 12 11 11 15 13 14 12 10 8 8 6 7 6 6 5
5 8 7 11 10 11 9 10 11 11 9 8 10 10 11 14 12 13 11 9 8 8 9 9 14 12 12 11 11 11 11 11 12 11 13 11 12 9 8 7 6 6 6 6 6
7 8 6 8 8 9 10 11 11 10 10 11 11 10 10 12 11 13 11 10 10 8 9 9 13 11 13 12 11 12 11 10 10 10 11 10 11 7 6 6 6 6 6 6 6
3 3 6 8 9 10 11 10 10 9 8 8 9 10 10 10 9 9 9 8 8 9 10 10 12 13 15 12 12 14 12 11 10 10 10 12 9 7 7 7 6 6 6 6 6